Preview of NWS' New Version of Forecast
This preview is not operational and should not be used for support decisions.

Regional Weather Roundup (RWR)

Issued by National Weather Service (NWS)

                            
000
ASUS43 KTOP 251108
RWRKS 

WEATHER ROUNDUP FOR KANSAS
NATIONAL WEATHER SERVICE GOODLAND KS
600 AM CDT SUN AUG 25 2019

NOTE:  "FAIR" INDICATES FEW OR NO CLOUDS BELOW 12,000 FEET WITH NO
SIGNIFICANT WEATHER AND/OR OBSTRUCTIONS TO VISIBILITY.

KSZ001>006-013>018-027>032-041>047-251200-
NORTHWEST KANSAS
  
CITY           SKY/WX    TMP DP  RH WIND       PRES   REMARKS
GOODLAND       FOG       63  63 100 S8        29.88F VSB 1/4          
HAYS           CLOUDY    63  63 100 SE6       29.66R                  
HILL CITY      PTCLDY    61  60  97 CALM      29.88S                  
RUSSELL        CLOUDY    64  61  90 SW9       29.89S                  
$$

KSZ061>065-074>080-084>089-251200-
SOUTHWEST KANSAS
  
CITY           SKY/WX    TMP DP  RH WIND       PRES   REMARKS
DODGE CITY     CLOUDY    65  63  93 E13       29.89R                  
ELKHART        CLEAR     69  68  95 S13       29.88F                  
GARDEN CITY    CLEAR     65  64  97 E6        29.86S                  
GREAT BEND     TSTM      63  62  97 SE5       29.89F                  
LIBERAL        CLEAR     70  67  90 S9        29.85F                  
PRATT          RAIN      63  62  95 E5        29.94R                  
$$

KSZ066>073-081>083-090>101-251200-
SOUTHEAST KANSAS
  
CITY           SKY/WX    TMP DP  RH WIND       PRES   REMARKS
CHANUTE        RAIN      68  65  90 SW6       29.94R FOG              
COFFEYVILLE    CLOUDY    73  70  90 SE5       29.90R                  
HUTCHINSON     RAIN      64  62  93 S5        29.87S FOG              
MEDICINE LODGE   N/A     63  62  97 NE10      29.85F                  
NEWTON         LGT RAIN  62  62 100 S13       29.89F                  
PARSONS        CLOUDY    73  71  93 S6        29.92S                  
WICHITA INTL   TSTM      64  62  93 S9        29.91R                  
WICHITA JABRA  HVY RAIN  63  63 100 S14       29.91R FOG              
WICHITA MCCONL HVY RAIN  64  61  92 SE9       29.91  FOG              
WINFIELD       CLOUDY    63  63 100 NW7       29.95R                  
$$

KSZ007>012-019>026-033>040-048>060-102>105-251200-
NORTHEAST KANSAS
  
CITY           SKY/WX    TMP DP  RH WIND       PRES   REMARKS
CONCORDIA      CLOUDY    67  65  93 E12G20    29.85F                  
EMPORIA        LGT RAIN  65  65 100 SE6       29.86F                  
LAWRENCE       CLOUDY    69  64  84 E8        29.89F                  
MANHATTAN      LGT RAIN  67  65  93 NE6       29.85R                  
MARYSVILLE     CLOUDY   N/A N/A N/A SE3       29.90S                  
OLATHE IND     CLOUDY    67  63  87 SE13      29.91F                  
OLATHE EXE     CLOUDY    66  64  93 SE14      29.90F                  
SALINA         LGT RAIN  64  62  93 N9        29.84S                  
TOPEKA BILLARD LGT RAIN  68  65  90 S7        29.89S                  
TOPEKA FORBES  HVY RAIN  68  65  90 SE8       29.88F VSB 3/4          
$$